Back to catalog

ONEWEB-0500

AliveCommunicationsPO
NORAD 54118·PAYLOAD·🇬🇧 United Kingdom

Launched Oct 22, 2022 from Satish Dhawan Space Centre

Loading…

Next Passes (next 24 hours)

TLE

FreshSource: CelesTrak SupGP

Epoch: Sep 14, 2026, 14:57 UTC

1 54118C 22138F   26257.62341852 -.00000718  00000+0 -17956-2 0  2572
2 54118  87.9116 287.1524 0001859  91.3536  20.1679 13.19724937    14

Track ONEWEB-0500 in real time with AllMySat

Download on the App Store